Location: Asheville, NC
(35.6000°N, 82.5500°W)
Time: 00:44:59
(UTC-04:00)

ISS - Pass Details

Date: 20 May 2019
Orbit: 407 x 410 km, 51.6° (Epoch: 23 May)

Event Time Altitude Azimuth Distance (km) Brightness Sun altitude
Rises 21:18:21 0° 240° (WSW) 2,314 0.4 -9.0°
Reaches altitude 10° 21:20:28 10° 247° (WSW) 1,458 -0.5 -9.4°
Maximum altitude 21:23:38 46° 322° (NW) 557 -2.6 -9.9°
Drops below altitude 10° 21:26:49 10° 37° (NE) 1,466 -1.0 -10.5°
Sets 21:28:57 0° 44° (NE) 2,330 -0.1 -10.8°
